KF8LO-1 Weather Reports


time (UTC)temp
C
wind
direction
speed
KPH
gust
KPH
rain 1hr
cm
rain 24hr
cm
rain mn
cm
humidity
%
barometer
mb
20260510094945 12 270 11.3 32.2 0.00 0.00 0.00 72
20260510094445 12 303 11.3 25.7 0.00 0.00 0.00 72
20260510093945 12 305 17.7 30.6 0.00 0.00 0.00 71
20260510093445 12 293 16.1 25.7 0.00 0.00 0.00 72
20260510092945 12 313 6.4 24.1 0.00 0.00 0.00 71
20260510092445 12 272 11.3 27.4 0.00 0.00 0.00 71
20260510091945 12 285 12.9 29.0 0.00 0.00 0.00 71
20260510091445 12 285 16.1 27.4 0.00 0.00 0.00 71
20260510090945 12 292 11.3 25.7 0.00 0.00 0.00 70
20260510090445 12 298 11.3 37.0 0.00 0.00 0.00 70
20260510085945 12 300 17.7 22.5 0.00 0.00 0.00 70
20260510085445 12 295 9.7 20.9 0.00 0.00 0.00 70
20260510084945 12 285 11.3 24.1 0.00 0.00 0.00 70
20260510084445 12 272 12.9 25.7 0.00 0.00 0.00 69
20260510083945 12 246 4.8 20.9 0.00 0.00 0.00 69
20260510083445 12 281 14.5 24.1 0.00 0.00 0.00 69
20260510082945 12 296 11.3 25.7 0.00 0.00 0.00 69
20260510082445 12 293 8.0 35.4 0.00 0.00 0.00 69
20260510081945 12 278 16.1 25.7 0.00 0.00 0.00 69
20260510081445 12 282 14.5 27.4 0.00 0.00 0.00 70
20260510080945 12 296 8.0 17.7 0.00 0.00 0.00 70
20260510080445 12 300 11.3 27.4 0.00 0.00 0.00 70
20260510075945 12 288 11.3 29.0 0.00 0.00 0.00 71
20260510075445 12 312 9.7 24.1 0.00 0.00 0.00 71
20260510074945 12 300 20.9 22.5 0.00 0.00 0.00 72
20260510074445 12 305 8.0 22.5 0.00 0.00 0.00 72
20260510073945 12 292 16.1 27.4 0.00 0.00 0.00 72
20260510073446 12 299 16.1 20.9 0.00 0.00 0.00 73
20260510072946 12 296 11.3 24.1 0.00 0.00 0.00 73
20260510072446 11 300 14.5 22.5 0.00 0.00 0.00 74
20260510071946 11 284 14.5 24.1 0.00 0.00 0.00 74
20260510071446 11 295 8.0 27.4 0.00 0.00 0.00 75
20260510070946 11 37 6.4 22.5 0.00 0.00 0.00 75
20260510070446 11 302 22.5 22.5 0.00 0.00 0.00 75
20260510065946 11 295 9.7 22.5 0.00 0.00 0.00 75
20260510065446 11 239 14.5 24.1 0.00 0.00 0.00 75
20260510064946 11 305 11.3 30.6 0.00 0.00 0.00 76
20260510064446 11 220 11.3 29.0 0.00 0.00 0.00 76
20260510063946 11 292 22.5 32.2 0.00 0.00 0.00 76
20260510063446 11 313 17.7 25.7 0.00 0.00 0.00 76
20260510062946 11 299 16.1 24.1 0.00 0.00 0.00 76
20260510062446 12 322 8.0 20.9 0.00 0.00 0.00 75
20260510061946 12 313 12.9 29.0 0.00 0.00 0.00 75
20260510061446 12 315 16.1 25.7 0.00 0.00 0.00 75
20260510060946 12 295 9.7 24.1 0.00 0.00 0.00 75
20260510060446 12 298 14.5 27.4 0.00 0.00 0.00 74
20260510055946 12 286 17.7 37.0 0.00 0.00 0.00 74
20260510055446 12 267 17.7 25.7 0.00 0.00 0.00 74
20260510054946 12 267 12.9 30.6 0.00 0.00 0.00 73
20260510054446 12 296 12.9 22.5 0.00 0.00 0.00 73
20260510053946 12 300 9.7 19.3 0.00 0.00 0.00 73
20260510053446 12 305 14.5 29.0 0.00 0.00 0.00 73
20260510052946 12 288 9.7 25.7 0.00 0.00 0.00 72
20260510052446 12 358 8.0 22.5 0.00 0.00 0.00 72
20260510051946 12 291 14.5 27.4 0.00 0.00 0.00 71
20260510051446 12 265 6.4 22.5 0.00 0.00 0.00 71
20260510050946 12 293 17.7 30.6 0.00 0.00 0.00 71
20260510050446 12 257 6.4 25.7 0.00 0.00 0.00 70
20260510045946 12 300 12.9 38.6 0.00 0.00 0.00 70
20260510045446 12 286 12.9 29.0 0.00 0.00 0.00 70
20260510044946 12 268 9.7 29.0 0.00 0.00 0.00 70
20260510044446 12 246 9.7 24.1 0.00 0.00 0.00 70
20260510043946 12 320 9.7 20.9 0.00 0.00 0.00 69
20260510043446 12 288 12.9 24.1 0.00 0.00 0.00 69
20260510042946 12 299 12.9 24.1 0.00 0.00 0.00 69
20260510042446 12 299 6.4 27.4 0.00 0.00 0.00 68
20260510041946 12 295 9.7 27.4 0.00 0.00 0.00 68
20260510041446 12 286 22.5 32.2 0.00 0.00 0.00 68
20260510040946 12 307 12.9 25.7 0.00 0.00 0.00 68
20260510040446 12 317 12.9 24.1 0.00 0.00 0.00 68
20260510035946 12 295 9.7 29.0 0.00 0.00 0.00 68
20260510035446 12 281 16.1 20.9 0.00 0.00 0.00 67
20260510034946 12 253 9.7 29.0 0.00 0.00 0.00 68
20260510034446 12 307 8.0 24.1 0.00 0.00 0.00 67
20260510033946 12 313 11.3 29.0 0.00 0.00 0.00 66
20260510033446 12 241 4.8 20.9 0.00 0.00 0.00 66
20260510032946 12 272 6.4 22.5 0.00 0.00 0.00 66
20260510032446 12 327 4.8 25.7 0.00 0.00 0.00 66
20260510031946 13 295 11.3 29.0 0.00 0.00 0.00 65
20260510031446 13 230 9.7 27.4 0.00 0.00 0.00 65
20260510030946 13 315 4.8 24.1 0.00 0.00 0.00 65
20260510030446 12 285 8.0 27.4 0.00 0.00 0.00 64
20260510025946 13 316 6.4 25.7 0.00 0.00 0.00 64
20260510025446 13 299 4.8 25.7 0.00 0.00 0.00 63
20260510024946 13 277 11.3 20.9 0.00 0.00 0.00 63
20260510024446 13 300 6.4 30.6 0.00 0.00 0.00 63
20260510023946 13 312 9.7 24.1 0.00 0.00 0.00 63
20260510023446 13 291 9.7 19.3 0.00 0.00 0.00 63
20260510022946 13 303 17.7 19.3 0.00 0.00 0.00 62
20260510022446 13 338 1.6 16.1 0.00 0.00 0.00 62
20260510021946 13 300 9.7 16.1 0.00 0.00 0.00 62
20260510021446 13 312 3.2 27.4 0.00 0.00 0.00 62
20260510020946 13 312 9.7 24.1 0.00 0.00 0.00 62
20260510020447 13 298 4.8 20.9 0.00 0.00 0.00 62
20260510015947 13 289 11.3 24.1 0.00 0.00 0.00 62
20260510015447 13 317 8.0 24.1 0.00 0.00 0.00 62
20260510014947 13 265 8.0 19.3 0.00 0.00 0.00 61
20260510014447 13 265 9.7 20.9 0.00 0.00 0.00 61
20260510013947 13 292 8.0 17.7 0.00 0.00 0.00 60
20260510013447 13 320 6.4 22.5 0.00 0.00 0.00 60
20260510012947 13 319 9.7 25.7 0.00 0.00 0.00 59
20260510012447 13 309 6.4 22.5 0.00 0.00 0.00 59
20260510011947 13 312 11.3 19.3 0.00 0.00 0.00 58
20260510011447 13 302 3.2 19.3 0.00 0.00 0.00 58
20260510010947 14 278 11.3 16.1 0.00 0.00 0.00 58
20260510010447 14 315 12.9 17.7 0.00 0.00 0.00 57
20260510005947 14 289 3.2 17.7 0.00 0.00 0.00 57
20260510005447 14 315 3.2 17.7 0.00 0.00 0.00 56
20260510004947 14 258 8.0 20.9 0.00 0.00 0.00 57
20260510004447 14 319 3.2 19.3 0.00 0.00 0.00 57
20260510003947 14 309 8.0 20.9 0.00 0.00 0.00 56
20260510003447 15 264 8.0 17.7 0.00 0.00 0.00 56
20260510002947 15 327 9.7 16.1 0.00 0.00 0.00 56
20260510002447 15 260 14.5 14.5 0.00 0.00 0.00 55
20260510001947 15 271 3.2 17.7 0.00 0.00 0.00 55
20260510001447 15 284 9.7 16.1 0.00 0.00 0.00 55
20260510000947 15 284 3.2 16.1 0.00 0.00 0.00 55
20260510000448 15 305 4.8 19.3 0.00 0.00 0.00 54
20260509235947 15 281 3.2 16.1 0.00 0.00 0.00 54
20260509235447 15 302 6.4 20.9 0.00 0.00 0.00 53
20260509234947 15 282 8.0 14.5 0.00 0.00 0.00 53
20260509234447 15 284 6.4 19.3 0.00 0.00 0.00 53
20260509233947 15 322 6.4 22.5 0.00 0.00 0.00 53
20260509233447 15 296 14.5 19.3 0.00 0.00 0.00 53
20260509232947 15 306 8.0 16.1 0.00 0.00 0.00 53
20260509232447 15 340 1.6 16.1 0.00 0.00 0.00 53
20260509231947 15 291 9.7 20.9 0.00 0.00 0.00 53
20260509231447 16 306 8.0 20.9 0.00 0.00 0.00 52
20260509230947 16 296 8.0 14.5 0.00 0.00 0.00 53
20260509230447 15 295 6.4 20.9 0.00 0.00 0.00 53
20260509225947 15 330 1.6 19.3 0.00 0.00 0.00 53
20260509225447 15 293 4.8 12.9 0.00 0.00 0.00 54
20260509224947 15 358 3.2 20.9 0.00 0.00 0.00 53
20260509224447 15 343 8.0 19.3 0.00 0.00 0.00 53
20260509223947 15 312 9.7 16.1 0.00 0.00 0.00 53
20260509223447 15 299 8.0 19.3 0.00 0.00 0.00 52
20260509222947 15 303 14.5 19.3 0.00 0.00 0.00 51
20260509222447 15 319 8.0 16.1 0.00 0.00 0.00 52
20260509221947 15 322 6.4 22.5 0.00 0.00 0.00 53
20260509221447 15 257 3.2 16.1 0.00 0.00 0.00 53
20260509220948 15 330 6.4 22.5 0.00 0.00 0.00 52
20260509220447 15 309 11.3 19.3 0.00 0.00 0.00 52
20260509215947 15 323 8.0 24.1 0.00 0.00 0.00 52
20260509215447 15 289 6.4 19.3 0.00 0.00 0.00 52
20260509214947 15 307 4.8 19.3 0.00 0.00 0.00 52
20260509214447 15 291 11.3 20.9 0.00 0.00 0.00 51
20260509213947 15 309 9.7 22.5 0.00 0.00 0.00 51
20260509213447 15 14 4.8 30.6 0.00 0.00 0.00 50
20260509212947 15 310 8.0 19.3 0.00 0.00 0.00 51
20260509212447 15 261 9.7 16.1 0.00 0.00 0.00 51
20260509211947 15 275 9.7 24.1 0.00 0.00 0.00 50
20260509211447 15 292 17.7 29.0 0.00 0.00 0.00 49
20260509210947 16 309 11.3 24.1 0.00 0.00 0.00 49
20260509210447 16 302 9.7 35.4 0.00 0.00 0.00 49
20260509205947 16 331 11.3 25.7 0.00 0.00 0.00 48
20260509205447 16 313 11.3 29.0 0.00 0.00 0.00 47
20260509204947 16 305 8.0 17.7 0.00 0.00 0.00 48
20260509204447 16 289 9.7 17.7 0.00 0.00 0.00 48
20260509203947 16 243 9.7 22.5 0.00 0.00 0.00 50
20260509203447 16 278 6.4 19.3 0.00 0.00 0.00 48
20260509202947 16 278 11.3 24.1 0.00 0.00 0.00 49
20260509202448 16 281 16.1 27.4 0.00 0.00 0.00 50
20260509201947 16 298 14.5 22.5 0.00 0.00 0.00 49
20260509201448 16 310 3.2 19.3 0.00 0.00 0.00 48
20260509200948 16 309 11.3 29.0 0.00 0.00 0.00 48
20260509200448 16 313 11.3 25.7 0.00 0.00 0.00 47
20260509195948 16 333 4.8 19.3 0.00 0.00 0.00 47
20260509195448 16 281 14.5 30.6 0.00 0.00 0.00 47
20260509194948 16 232 3.2 24.1 0.00 0.00 0.00 47
20260509194448 16 333 1.6 24.1 0.00 0.00 0.00 47
20260509193948 16 281 6.4 22.5 0.00 0.00 0.00 45
20260509193448 16 322 14.5 22.5 0.00 0.00 0.00 47
20260509192948 16 244 3.2 17.7 0.00 0.00 0.00 45
20260509192448 16 309 3.2 19.3 0.00 0.00 0.00 45
20260509191948 16 270 11.3 29.0 0.00 0.00 0.00 44
20260509191448 16 253 8.0 25.7 0.00 0.00 0.00 45
20260509190948 16 267 6.4 16.1 0.00 0.00 0.00 47
20260509190448 16 260 8.0 16.1 0.00 0.00 0.00 47
20260509185948 16 315 4.8 19.3 0.00 0.00 0.00 47
20260509185448 16 253 6.4 27.4 0.00 0.00 0.00 46
20260509184948 16 253 4.8 27.4 0.00 0.00 0.00 47
20260509184448 16 306 14.5 17.7 0.00 0.00 0.00 49
20260509183948 16 278 8.0 27.4 0.00 0.00 0.00 48
20260509183448 16 234 11.3 27.4 0.00 0.00 0.00 46
20260509182948 16 285 14.5 30.6 0.00 0.00 0.00 46
20260509182448 16 319 8.0 27.4 0.00 0.00 0.00 45
20260509181948 16 286 14.5 22.5 0.00 0.00 0.00 48
20260509181448 16 250 6.4 17.7 0.00 0.00 0.00 47
20260509180948 16 307 8.0 20.9 0.00 0.00 0.00 48
20260509180448 16 275 14.5 20.9 0.00 0.00 0.00 49
20260509175948 16 281 6.4 16.1 0.00 0.00 0.00 50
20260509175448 16 281 8.0 19.3 0.00 0.00 0.00 50
20260509174948 16 272 9.7 20.9 0.00 0.00 0.00 49
20260509174448 16 320 8.0 17.7 0.00 0.00 0.00 53
20260509173948 16 282 8.0 20.9 0.00 0.00 0.00 51
20260509173448 16 248 8.0 24.1 0.00 0.00 0.00 51
20260509172948 16 262 3.2 20.9 0.00 0.00 0.00 50
20260509172448 15 271 12.9 17.7 0.00 0.00 0.00 52
20260509171948 15 43 9.7 22.5 0.00 0.00 0.00 51
20260509171448 15 234 4.8 29.0 0.00 0.00 0.00 51
20260509170948 15 181 6.4 25.7 0.00 0.00 0.00 54
20260509170448 15 265 9.7 27.4 0.00 0.00 0.00 54
20260509165948 15 223 9.7 20.9 0.00 0.00 0.00 55
20260509165448 15 246 4.8 17.7 0.00 0.00 0.00 53
20260509164948 14 293 1.6 12.9 0.00 0.00 0.00 54
20260509164448 14 264 3.2 19.3 0.00 0.00 0.00 55
20260509163948 14 285 3.2 19.3 0.00 0.00 0.00 53
20260509163448 14 296 0.0 12.9 0.00 0.00 0.00 54
20260509162948 13 230 8.0 14.5 0.00 0.00 0.00 54
20260509162448 13 241 9.7 14.5 0.00 0.00 0.00 55
20260509161948 13 264 3.2 12.9 0.00 0.00 0.00 54
20260509161448 13 275 4.8 11.3 0.00 0.00 0.00 54
20260509160948 13 132 1.6 9.7 0.00 0.00 0.00 54
20260509160448 13 291 0.0 17.7 0.00 0.00 0.00 53
20260509155948 13 282 6.4 12.9 0.00 0.00 0.00 53
20260509155448 13 315 1.6 8.0 0.00 0.00 0.00 53
20260509154948 13 282 3.2 11.3 0.00 0.00 0.00 54
20260509154448 13 262 4.8 14.5 0.00 0.00 0.00 54
20260509153948 13 270 6.4 12.9 0.00 0.00 0.00 54
20260509153448 13 298 8.0 14.5 0.00 0.00 0.00 54
20260509152948 13 23 11.3 11.3 0.00 0.00 0.00 55
20260509152448 13 208 0.0 17.7 0.00 0.00 0.00 55
20260509151948 13 300 4.8 11.3 0.00 0.00 0.00 56
20260509151448 13 340 6.4 16.1 0.00 0.00 0.00 54
20260509150948 12 285 9.7 14.5 0.00 0.00 0.00 56
20260509150448 12 351 9.7 16.1 0.00 0.00 0.00 56
20260509145949 12 302 8.0 14.5 0.00 0.00 0.00 55
20260509145448 12 305 9.7 19.3 0.00 0.00 0.00 54
20260509144949 13 307 6.4 16.1 0.00 0.00 0.00 54
20260509144449 13 315 3.2 19.3 0.00 0.00 0.00 53
20260509143949 13 313 9.7 19.3 0.00 0.00 0.00 54
20260509143449 13 345 8.0 14.5 0.00 0.00 0.00 53
20260509142949 13 313 4.8 20.9 0.00 0.00 0.00 52
20260509142449 13 307 8.0 17.7 0.00 0.00 0.00 52
20260509141949 13 303 6.4 14.5 0.00 0.00 0.00 53
20260509141449 13 232 6.4 11.3 0.00 0.00 0.00 53
20260509140949 13 350 1.6 14.5 0.00 0.00 0.00 54
20260509140449 12 277 9.7 17.7 0.00 0.00 0.00 53
20260509135949 12 312 4.8 11.3 0.00 0.00 0.00 54
20260509135449 12 315 6.4 16.1 0.00 0.00 0.00 53
20260509134949 12 322 4.8 19.3 0.00 0.00 0.00 53
20260509134449 12 319 3.2 14.5 0.00 0.00 0.00 54
20260509133949 12 337 4.8 17.7 0.00 0.00 0.00 53
20260509133449 12 274 4.8 14.5 0.00 0.00 0.00 55
20260509132949 12 343 8.0 11.3 0.00 0.00 0.00 53
20260509132449 12 241 1.6 17.7 0.00 0.00 0.00 52
20260509131949 12 194 4.8 19.3 0.00 0.00 0.00 53
20260509131449 12 317 9.7 16.1 0.00 0.00 0.00 52
20260509130949 12 306 1.6 16.1 0.00 0.00 0.00 52
20260509130449 12 11 6.4 12.9 0.00 0.00 0.00 53
20260509125949 12 288 9.7 14.5 0.00 0.00 0.00 52
20260509125449 12 272 1.6 12.9 0.00 0.00 0.00 53
20260509124949 12 305 0.0 12.9 0.00 0.00 0.00 52
20260509124449 11 225 3.2 9.7 0.00 0.00 0.00 53
20260509123949 11 244 0.0 9.7 0.00 0.00 0.00 53
20260509123449 11 337 0.0 8.0 0.00 0.00 0.00 55
20260509122949 11 289 6.4 11.3 0.00 0.00 0.00 54
20260509122449 11 338 0.0 4.8 0.00 0.00 0.00 58
20260509121949 11 81 0.0 0.0 0.00 0.00 0.00 57
20260509121449 10 81 0.0 0.0 0.00 0.00 0.00 57
20260509120949 10 81 0.0 0.0 0.00 0.00 0.00 58
20260509120449 10 81 0.0 0.0 0.00 0.00 0.00 58
20260509115949 10 81 0.0 0.0 0.00 0.00 0.00 57
20260509115449 10 81 0.0 0.0 0.00 0.00 0.00 57
20260509114949 10 81 0.0 4.8 0.00 0.00 0.00 56
20260509114449 10 57 3.2 6.4 0.00 0.00 0.00 56
20260509113949 10 81 0.0 6.4 0.00 0.00 0.00 56
20260509113449 10 81 6.4 6.4 0.00 0.00 0.00 56
20260509112949 10 90 0.0 4.8 0.00 0.00 0.00 56
20260509112449 10 63 0.0 6.4 0.00 0.00 0.00 56
20260509111949 10 71 6.4 6.4 0.00 0.00 0.00 56
20260509111449 10 66 1.6 4.8 0.00 0.00 0.00 56
20260509110949 10 60 0.0 0.0 0.00 0.00 0.00 56
20260509110449 10 60 0.0 3.2 0.00 0.00 0.00 56
20260509105949 10 25 1.6 3.2 0.00 0.00 0.00 57
20260509105449 10 8 1.6 4.8 0.00 0.00 0.00 57
20260509104949 10 18 3.2 4.8 0.00 0.00 0.00 58
20260509104449 10 352 1.6 9.7 0.00 0.00 0.00 57
20260509103949 10 23 6.4 9.7 0.00 0.00 0.00 56
20260509103449 10 340 3.2 11.3 0.00 0.00 0.00 53
20260509102949 10 347 9.7 11.3 0.00 0.00 0.00 53
20260509102449 10 18 1.6 12.9 0.00 0.00 0.00 53
20260509101949 10 327 8.0 12.9 0.00 0.00 0.00 52
20260509101449 11 348 4.8 11.3 0.00 0.00 0.00 51
20260509100949 11 340 9.7 14.5 0.00 0.00 0.00 50
20260509100449 11 32 6.4 12.9 0.00 0.00 0.00 47
20260509095949 11 272 6.4 12.9 0.00 0.00 0.00 47
20260509095449 11 279 4.8 12.9 0.00 0.00 0.00 47